GW2947 Weather Reports


Display with metric or nautical units.
time (UTC)temp
F
wind
direction
speed
MPH
gust
MPH
rain 1hr
in
rain 24hr
in
rain mn
in
humidity
%
barometer
mb
20260503060145 53 243 0.0 0.0 0.00 0.01 0.01 63 1199.3
20260503054632 55 273 0.0 0.0 0.00 0.01 0.01 59 1199.5
20260503054130 55 273 0.0 0.0 0.00 0.01 0.01 58 1199.6
20260503053627 56 274 0.0 1.0 0.00 0.01 0.01 56 1199.5
20260503053126 57 260 0.0 0.0 0.00 0.01 0.01 55 1199.3
20260503052622 57 256 0.0 7.0 0.00 0.01 0.01 55 1199.4
20260503052118 57 245 4.0 9.0 0.00 0.01 0.01 55 1199.4
20260503051614 57 228 2.0 8.0 0.00 0.01 0.01 55 1199.0
20260503051112 57 205 4.0 8.0 0.00 0.01 0.01 55 1199.0
20260503050608 57 222 4.0 10.0 0.00 0.01 0.01 54 1199.2
20260503050105 57 165 9.0 11.0 0.00 0.01 0.01 53 1199.0
20260503045602 57 162 9.0 13.0 0.00 0.01 0.01 53 1199.2
20260503045059 58 203 7.0 15.0 0.00 0.01 0.01 53 1199.0
20260503044555 57 206 5.0 13.0 0.00 0.01 0.01 53 1199.2
20260503044054 57 183 8.0 9.0 0.00 0.01 0.01 54 1199.2
20260503043549 57 219 6.0 13.0 0.00 0.01 0.01 54 1199.3
20260503043046 58 193 11.0 20.0 0.00 0.01 0.01 53 1198.8
20260503042543 59 194 14.0 17.0 0.00 0.01 0.01 51 1199.3
20260503042039 59 196 9.0 17.0 0.00 0.01 0.01 50 1198.9
20260503041536 58 171 9.0 14.0 0.00 0.01 0.01 50 1198.6
20260503041034 59 224 5.0 13.0 0.00 0.01 0.01 51 1198.9
20260503040531 59 179 6.0 8.0 0.00 0.01 0.01 50 1198.9
20260503040028 57 251 0.0 9.0 0.00 0.01 0.01 56 1198.6
20260503035525 56 258 0.0 0.0 0.00 0.01 0.01 60 1198.7
20260503035023 57 258 0.0 0.0 0.00 0.01 0.01 60 1198.5
20260503034520 58 254 0.0 0.0 0.00 0.01 0.01 54 1198.5
20260503034017 58 257 0.0 0.0 0.00 0.01 0.01 53 1198.4
20260503033514 58 257 0.0 0.0 0.00 0.01 0.01 54 1198.1
20260503033012 57 263 0.0 0.0 0.00 0.01 0.01 58 1198.2
20260503032510 57 263 0.0 0.0 0.00 0.01 0.01 59 1198.0
20260503032008 57 271 0.0 0.0 0.00 0.01 0.01 60 1197.9
20260503031505 57 271 0.0 0.0 0.00 0.01 0.01 59 1198.0
20260503031002 57 274 0.0 0.0 0.00 0.01 0.01 62 1197.9
20260503030458 57 267 0.0 0.0 0.00 0.01 0.01 65 1198.0
20260503025955 58 270 0.0 0.0 0.00 0.01 0.01 61 1198.0
20260503025452 59 258 0.0 0.0 0.00 0.01 0.01 57 1197.7
20260503024950 59 254 0.0 0.0 0.00 0.01 0.01 55 1197.4
20260503024446 59 254 0.0 0.0 0.00 0.01 0.01 55 1197.6
20260503023943 60 252 0.0 0.0 0.00 0.01 0.01 54 1197.3
20260503023440 60 230 1.0 2.0 0.00 0.01 0.01 53 1197.6
20260503022937 60 195 4.0 7.0 0.00 0.01 0.01 52 1197.6
20260503022432 60 204 4.0 10.0 0.00 0.01 0.01 53 1197.6
20260503021928 60 201 7.0 10.0 0.00 0.01 0.01 52 1197.4
20260503021424 61 182 4.0 6.0 0.00 0.01 0.01 52 1197.6
20260503020922 60 196 5.0 9.0 0.00 0.01 0.01 52 1197.6
20260503020420 59 257 0.0 0.0 0.00 0.01 0.01 54 1197.4
20260503015916 59 253 0.0 2.0 0.00 0.01 0.01 54 1197.6
20260503015413 59 250 0.0 5.0 0.00 0.01 0.01 54 1197.4
20260503014908 58 249 0.0 1.0 0.07 0.01 0.01 59 1197.2
20260503014406 63 234 10.0 14.0 0.00 0.00 0.00 46 1197.7
20260503013904 63 203 6.0 16.0 0.00 0.00 0.00 39 1197.3
20260503013401 65 214 6.0 15.0 0.00 0.00 0.00 36 1197.1
20260503012858 66 171 5.0 9.0 0.00 0.00 0.00 35 1196.9
20260503012356 66 242 2.0 14.0 0.00 0.00 0.00 34 1196.8
20260503011852 66 198 7.0 11.0 0.00 0.00 0.00 33 1196.5
20260503011349 66 258 8.0 14.0 0.00 0.00 0.00 33 1196.8
20260503010845 66 180 6.0 10.0 0.00 0.00 0.00 35 1196.7
20260503010342 67 221 5.0 16.0 0.00 0.00 0.00 34 1196.8
20260503005839 67 197 8.0 13.0 0.00 0.00 0.00 33 1196.7
20260503005337 67 231 3.0 5.0 0.00 0.00 0.00 35 1196.8
20260503004833 68 227 2.0 3.0 0.00 0.00 0.00 34 1196.7
20260503004330 68 246 2.0 3.0 0.00 0.00 0.00 35 1196.5
20260503003828 69 277 0.0 3.0 0.00 0.00 0.00 34 1196.3
20260503003325 70 272 3.0 7.0 0.00 0.00 0.00 32 1196.4
20260503002821 71 289 0.0 2.0 0.00 0.00 0.00 33 1196.3
20260503002319 71 264 3.0 9.0 0.00 0.00 0.00 32 1196.4
20260503001815 70 263 0.0 7.0 0.00 0.00 0.00 28 1196.3
20260503001311 67 273 7.0 10.0 0.00 0.00 0.00 31 1196.4
20260503000809 68 213 9.0 16.0 0.00 0.00 0.00 31 1196.4
20260503000306 68 239 7.0 9.0 0.00 0.00 0.00 31 1196.2
20260502235803 69 195 2.0 8.0 0.00 0.00 0.00 31 1195.9
20260502235301 70 208 6.0 10.0 0.00 0.00 0.00 29 1196.1
20260502234757 72 171 11.0 13.0 0.00 0.00 0.00 28 1196.2
20260502234254 70 249 3.0 10.0 0.00 0.00 0.00 29 1196.3
20260502233750 69 205 4.0 6.0 0.00 0.00 0.00 31 1196.4
20260502233247 69 194 4.0 6.0 0.00 0.00 0.00 31 1196.3
20260502232743 69 242 5.0 8.0 0.00 0.00 0.00 31 1196.5
20260502232240 71 172 7.0 13.0 0.00 0.00 0.00 29 1196.4
20260502231737 71 255 1.0 8.0 0.00 0.00 0.00 29 1196.8
20260502231235 71 261 2.0 8.0 0.00 0.00 0.00 30 1196.8
20260502230733 71 215 6.0 16.0 0.00 0.00 0.00 30 1196.8
20260502230231 70 245 5.0 8.0 0.00 0.00 0.00 29 1196.8
20260502225727 71 161 7.0 10.0 0.00 0.00 0.00 32 1197.2
20260502225224 70 227 6.0 8.0 0.00 0.00 0.00 28 1197.2
20260502224720 69 214 4.0 7.0 0.00 0.00 0.00 31 1197.3
20260502224217 71 190 6.0 16.0 0.00 0.00 0.00 32 1197.0
20260502223715 70 197 4.0 7.0 0.00 0.00 0.00 31 1197.1
20260502223213 70 166 7.0 8.0 0.00 0.00 0.00 33 1197.4
20260502222710 69 177 7.0 16.0 0.00 0.00 0.00 33 1197.6
20260502222206 70 178 4.0 11.0 0.00 0.00 0.00 34 1197.4
20260502221702 70 245 5.0 8.0 0.00 0.00 0.00 33 1197.7
20260502221159 68 191 5.0 9.0 0.00 0.00 0.00 33 1197.8
20260502220655 69 190 4.0 9.0 0.00 0.00 0.00 33 1197.9
20260502220152 71 242 4.0 7.0 0.00 0.00 0.00 32 1198.0
20260502215649 69 256 2.0 10.0 0.00 0.00 0.00 33 1198.0
20260502215146 69 236 1.0 6.0 0.00 0.00 0.00 34 1198.0
20260502214643 69 239 2.0 8.0 0.00 0.00 0.00 33 1198.1
20260502214140 71 242 9.0 10.0 0.00 0.00 0.00 32 1198.0
20260502213637 69 253 0.0 5.0 0.00 0.00 0.00 33 1198.5
20260502213134 70 207 5.0 7.0 0.00 0.00 0.00 32 1198.2
20260502212633 70 271 1.0 7.0 0.00 0.00 0.00 32 1198.2
20260502212131 69 195 4.0 10.0 0.00 0.00 0.00 32 1198.1
20260502211626 69 254 3.0 7.0 0.00 0.00 0.00 33 1198.0
20260502211123 69 264 0.0 5.0 0.00 0.00 0.00 32 1198.4
20260502210620 70 245 3.0 6.0 0.00 0.00 0.00 33 1198.2
20260502210112 71 254 1.0 5.0 0.00 0.00 0.00 31 1198.5
20260502205608 70 262 0.0 5.0 0.00 0.00 0.00 33 1198.4
20260502205106 70 237 2.0 5.0 0.00 0.00 0.00 33 1198.2
20260502204602 70 240 2.0 5.0 0.00 0.00 0.00 33 1198.4
20260502204100 69 263 0.0 2.0 0.00 0.00 0.00 33 1198.5
20260502203557 68 242 3.0 8.0 0.00 0.00 0.00 34 1198.5
20260502203054 68 245 3.0 6.0 0.00 0.00 0.00 34 1198.6
20260502202550 68 197 4.0 6.0 0.00 0.00 0.00 34 1198.6
20260502202048 68 212 5.0 7.0 0.00 0.00 0.00 34 1198.2
20260502201544 68 296 5.0 10.0 0.00 0.00 0.00 33 1198.6
20260502201041 67 226 2.0 3.0 0.00 0.00 0.00 34 1198.5
20260502200536 67 219 0.0 9.0 0.00 0.00 0.00 34 1198.6
20260502200035 67 294 0.0 5.0 0.00 0.00 0.00 34 1198.5
20260502195532 67 254 0.0 6.0 0.00 0.00 0.00 35 1198.8
20260502195028 67 219 4.0 7.0 0.00 0.00 0.00 35 1198.8
20260502194525 67 227 2.0 8.0 0.00 0.00 0.00 35 1199.0
20260502194021 67 231 3.0 17.0 0.00 0.00 0.00 35 1198.6
20260502193518 67 256 0.0 5.0 0.00 0.00 0.00 34 1198.6
20260502193015 67 225 3.0 9.0 0.00 0.00 0.00 35 1198.8
20260502192510 67 240 3.0 9.0 0.00 0.00 0.00 34 1198.9
20260502192008 67 254 2.0 3.0 0.00 0.00 0.00 34 1198.8
20260502191505 67 247 0.0 5.0 0.00 0.00 0.00 34 1198.8
20260502191003 67 254 1.0 5.0 0.00 0.00 0.00 33 1198.6
20260502190500 67 206 2.0 6.0 0.00 0.00 0.00 34 1199.0
20260502185956 68 239 1.0 5.0 0.00 0.00 0.00 34 1198.7
20260502185452 67 234 3.0 6.0 0.00 0.00 0.00 34 1198.9
20260502184948 66 261 0.0 1.0 0.00 0.00 0.00 37 1198.7
20260502184438 66 264 0.0 1.0 0.00 0.00 0.00 36 1198.7
20260502183935 66 265 0.0 0.0 0.00 0.00 0.00 36 1198.5
20260502183431 65 273 0.0 0.0 0.00 0.00 0.00 36 1198.8
20260502182926 65 269 0.0 0.0 0.00 0.00 0.00 37 1198.6
20260502182422 65 271 0.0 1.0 0.00 0.00 0.00 38 1198.7
20260502181918 65 292 0.0 1.0 0.00 0.00 0.00 36 1198.6
20260502181417 64 258 0.0 0.0 0.00 0.00 0.00 36 1198.9
20260502180915 64 259 0.0 0.0 0.00 0.00 0.00 36 1198.6
20260502180412 64 276 0.0 3.0 0.00 0.00 0.00 36 1198.6
20260502170331 61 250 0.0 3.0 0.00 0.00 0.00 38 1198.5
20260502164318 62 275 0.0 0.0 0.00 0.00 0.00 39 1198.5
20260502163814 62 272 0.0 1.0 0.00 0.00 0.00 43 1198.5
20260502163310 62 268 0.0 0.0 0.00 0.00 0.00 41 1198.8
20260502162808 62 264 0.0 0.0 0.00 0.00 0.00 46 1198.7
20260502162305 62 269 0.0 0.0 0.00 0.00 0.00 45 1198.7
20260502161802 60 268 0.0 0.0 0.00 0.00 0.00 43 1198.6
20260502161257 59 256 0.0 0.0 0.00 0.00 0.00 43 1198.8
20260502160756 56 262 0.0 0.0 0.00 0.00 0.00 47 1198.9
20260502160255 55 256 0.0 0.0 0.00 0.00 0.00 47 1198.6
20260502152224 50 258 0.0 0.0 0.00 0.00 0.00 59 1198.6
20260502151721 50 258 0.0 0.0 0.00 0.00 0.00 61 1198.5
20260502151218 49 258 0.0 0.0 0.00 0.00 0.00 62 1198.6
20260502150716 49 260 0.0 0.0 0.00 0.00 0.00 65 1198.6
20260502150212 49 259 0.0 0.0 0.00 0.00 0.00 66 1198.2
20260502130601 45 268 0.0 0.0 0.00 0.00 0.00 67 1197.8
20260502123544 45 260 0.0 0.0 0.00 0.00 0.00 66 1197.8
20260502123040 45 262 0.0 0.0 0.00 0.00 0.00 67 1197.8
20260502122537 46 262 0.0 0.0 0.00 0.00 0.00 67 1197.8
20260502122034 45 262 0.0 0.0 0.00 0.00 0.00 68 1197.8
20260502121532 45 262 0.0 0.0 0.00 0.00 0.00 67 1197.8
20260502121029 45 262 0.0 0.0 0.00 0.00 0.00 67 1197.9
20260502120525 44 263 0.0 0.0 0.00 0.00 0.00 68 1197.7
20260502115520 46 260 0.0 0.0 0.00 0.00 0.00 65 1197.7
20260502115016 46 260 0.0 0.0 0.00 0.00 0.00 65 1197.9
20260502114513 46 260 0.0 0.0 0.00 0.00 0.00 65 1197.8
20260502114009 46 260 0.0 0.0 0.00 0.00 0.00 64 1197.6
20260502113507 45 260 0.0 0.0 0.00 0.00 0.00 65 1197.7
20260502113005 45 260 0.0 0.0 0.00 0.00 0.00 66 1197.6
20260502112503 45 260 0.0 0.0 0.00 0.00 0.00 66 1197.9
20260502112000 45 260 0.0 0.0 0.00 0.00 0.00 67 1197.9
20260502111457 45 260 0.0 0.0 0.00 0.00 0.00 66 1197.9
20260502110955 45 260 0.0 0.0 0.00 0.00 0.00 66 1198.1
20260502110452 46 260 0.0 0.0 0.00 0.00 0.00 65 1197.8
20260502105949 46 260 0.0 0.0 0.00 0.00 0.00 64 1198.0
20260502105447 46 260 0.0 0.0 0.00 0.00 0.00 63 1198.0
20260502104944 46 260 0.0 0.0 0.00 0.00 0.00 63 1198.0
20260502104441 46 260 0.0 0.0 0.00 0.00 0.00 63 1198.1
20260502103939 46 260 0.0 0.0 0.00 0.00 0.00 63 1198.0
20260502103436 47 260 0.0 0.0 0.00 0.00 0.00 62 1198.0
20260502102933 48 260 0.0 0.0 0.00 0.00 0.00 60 1198.0
20260502102430 48 260 0.0 0.0 0.00 0.00 0.00 60 1198.0
20260502101927 48 260 0.0 0.0 0.00 0.00 0.00 60 1198.0
20260502101425 49 260 0.0 0.0 0.00 0.00 0.00 59 1198.1
20260502100923 49 260 0.0 0.0 0.00 0.00 0.00 59 1198.1
20260502100422 49 260 0.0 0.0 0.00 0.00 0.00 58 1198.0
20260502091356 49 255 0.0 0.0 0.00 0.00 0.00 55 1198.2
20260502090854 49 255 0.0 0.0 0.00 0.00 0.00 55 1198.5
20260502090350 49 255 0.0 0.0 0.00 0.00 0.00 55 1198.7
20260502071245 53 252 0.0 0.0 0.00 0.00 0.00 54 1199.5
20260502070743 53 252 0.0 0.0 0.00 0.00 0.00 53 1199.6
20260502070240 54 252 0.0 0.0 0.00 0.00 0.00 52 1199.5
20260502065739 53 254 0.0 0.0 0.00 0.00 0.00 53 1199.4
20260502065237 55 257 0.0 0.0 0.00 0.00 0.00 52 1199.4
20260502064735 55 257 0.0 0.0 0.00 0.00 0.00 51 1199.3
20260502064232 55 257 0.0 0.0 0.00 0.00 0.00 50 1199.4
20260502063730 56 258 0.0 0.0 0.00 0.00 0.00 50 1199.3
20260502063228 56 257 0.0 0.0 0.00 0.00 0.00 49 1199.3
20260502062724 54 259 0.0 0.0 0.00 0.00 0.00 51 1199.5
20260502062222 56 258 0.0 0.0 0.00 0.00 0.00 51 1199.4
20260502061720 59 258 0.0 0.0 0.00 0.00 0.00 44 1199.3